Regional Weather Roundup
Issued by NWS

Home | Current Version | Previous Version | Graphics & Text | Print | Product List | Glossary On
Versions: 1 2 3 4 5 6 7 8 9 10 11 12 13 14 15 16 17 18 19 20 21 22 23 24 25 26 27 28 29 30 31 32 33 34 35 36 37 38 39 40 41 42 43 44 45 46 47 48 49 50
000
ASUS45 KABQ 252201
RWRNM
WEATHER ROUNDUP FOR NEW MEXICO
NATIONAL WEATHER SERVICE ALBUQUERQUE NM
300 PM MST SUN JAN 25 2015

NOTE: "FAIR" MEANS FEW OR NO CLOUDS BELOW 12,000 FEET AGL WITH NO
       SIGNIFICANT WEATHER OR OBSTRUCTIONS TO VISION.

      THIS PRODUCT IS RELEASED AS TWO VERSIONS.  ONE VERSION NEAR
      THE TOP OF THE HOUR CONTAINING PRELIMINARY DATA FROM ALBUQUERQUE
      AND OTHER STATIONS.  A FINAL VERSION WITH ADDITIONAL DATA IS
      ISSUED ABOUT 10 MINUTES AFTER THE HOUR.

NMZ501-503-504-510>518-252300-
NORTHWEST PLATEAU/NORTHCENTRAL MOUNTAINS

CITY           SKY/WX    TMP DP  RH WIND       PRES   REMARKS
FARMINGTON     SUNNY     48  20  32 VRB7      30.27F
SANTA FE       SUNNY     52  18  26 W10       30.23S
TAOS           SUNNY     48  25  40 NW9       30.26S

$$
NMZ402-403-502-505>509-252300-
WESTCENTRAL MOUNTAINS/SOUTHWEST MOUNTAINS

CITY           SKY/WX    TMP DP  RH WIND       PRES   REMARKS
GALLUP         SUNNY     53  22  29 W3        30.28S
SILVER CITY    SUNNY     57  18  21 SE10      30.24S

$$
NMZ407-409-411-412-252300-
SOUTHERN DESERTS

CITY           SKY/WX    TMP DP  RH WIND       PRES   REMARKS
DEMING         MOSUNNY   58  26  29 E8        30.20F
HOLLOMAN AFB   MOSUNNY   56  26  31 W3        30.23S
ALAMOGORDO     SUNNY     57  23  26 S3        30.24S
T OR C         SUNNY     57  19  22 CALM      30.22S

$$
NMZ519>523-252300-
CENTRAL VALLEYS/CENTRAL HIGHLANDS

CITY           SKY/WX    TMP DP  RH WIND       PRES   REMARKS
ALBUQUERQUE    MOSUNNY   53  21  28 CALM      30.25F
DOUBLE EAGLE   SUNNY     52  19  28 VRB3      30.25F
CLINES CORNERS SUNNY     48  22  35 NW16      30.21R
BELEN          FAIR      54  20  26 NE5       30.24F
SOCORRO        NOT AVBL

$$
NMZ524>526-539-540-252300-
SOUTHCENTRAL MOUNTAINS

CITY           SKY/WX    TMP DP  RH WIND       PRES   REMARKS
RUIDOSO        NOT AVBL

$$
NMZ527>531-252300-
NORTHEAST HIGHLANDS/NORTHEAST PLAINS

CITY           SKY/WX    TMP DP  RH WIND       PRES   REMARKS
LAS VEGAS      SUNNY     45  26  47 E6        30.22S
RATON          SUNNY     43  23  45 S8        30.21R
CLAYTON        SUNNY     46  30  53 W14       30.19S

$$
NMZ532>537-252300-
EASTCENTRAL PLAINS

CITY           SKY/WX    TMP DP  RH WIND       PRES   REMARKS
TUCUMCARI      SUNNY     50  31  48 S7        30.21S
CANNON AFB     SUNNY     48  29  47 CALM      30.23S
CLOVIS AIRPORT SUNNY     48  30  49 NW3       30.24R

$$
NMZ028-029-538-252300-
SOUTHEAST PLAINS

CITY           SKY/WX    TMP DP  RH WIND       PRES   REMARKS
ROSWELL        SUNNY     57  28  33 SE12      30.23S
ARTESIA        SUNNY     57  28  33 S5G12     30.25S
CARLSBAD       SUNNY     60  22  23 SE8       30.23S
HOBBS          SUNNY     57  25  28 CALM      30.25R


$$



USA.gov is the U.S. government's official web portal to all federal, state and local government web resources and services.